METAR Formatted Surface Weather Observation
Issued by NWS

Home | Current Version | Previous Version | Text Only | Print | Product List | Glossary On
Versions: 1 2 3 4 5 6 7 8 9 10 11 12 13 14 15 16 17 18 19 20 21 22 23 24 25 26 27 28 29 30 31 32 33 34 35 36 37 38 39 40 41 42 43 44 45 46 47 48 49 50
000
SAUS43 KAPX 261755
MTRAPN
METAR KAPN 261754Z AUTO 11009KT 10SM OVC028 M07/M12 A2998 RMK AO2
UPB36E48SNB03E13 SLP169 P0000 60000 T10721117 11067 21189 58010



USA.gov is the U.S. government's official web portal to all federal, state and local government web resources and services.